SCP
2 2 2 2 2 1 1 1 1 1 1 1 1 2 2 2 2 2 2 1 1 0 0 0 0 1 1 1 1 0 0 0 0 0 1 1 1 1
2 2 2 2 1 1 1 1 1 1 1 1 1 1 2 2 1 1 1 1 1 0 0 0 0 0 0 1 0 0 0 0 0 0 1 1 1 1
2 2 1 1 1 1 1 1 1 1 1 1 1 1 1 1 1 1 1 1 1 0 0 0 0 0 0 0 0 0 0 0 0 0 0 0 0 1
2 2 2 2 2 2 2 2 1 1 1 0 1 1 1 1 1 1 1 1 0 0 0 0 0 0 0 0 0 0 0 0 0 0 0 0 0 0
2 2 2 2 2 2 2 2 2 1 1 1 1 1 1 1 1 1 1 0 0 0 0 0 0 0 0 0 0 0 0 0 0 0 0 0 0 0
1 2 2 2 2 2 2 2 2 2 1 1 1 1 1 1 1 1 1 1 0 0 0 0 0 0 0 0 0 0 0 0 0 0 0 0 0 0
1 1 2 2 2 2 2 2 2 2 2 1 1 1 1 1 1 1 1 1 0 0 0 0 0 0 0 0 0 0 0 0 0 0 0 0 0 0
1 1 2 2 2 1 1 1 2 2 1 1 1 1 1 1 1 1 1 1 1 1 1 0 0 0 0 0 0 0 0 0 0 0 0 0 0 0
1 2 2 2 2 1 1 1 1 1 1 1 1 1 1 1 1 1 1 1 0 1 1 0 0 0 0 0 0 0 0 0 0 0 0 0 0 0
1 2 2 2 2 1 1 1 1 1 0 0 1 0 0 0 1 1 1 1 0 0 0 0 0 0 0 0 0 0 0 0 0 0 0 0 0 0
1 1 1 1 1 1 1 1 1 1 1 0 0 0 0 0 0 0 0 0 0 0 0 0 0 0 0 0 0 0 0 0 0 0 0 0 0 0
1 1 0 0 0 0 0 1 1 1 1 1 1 0 0 0 0 0 0 0 0 0 0 0 0 0 0 0 0 0 0 0 0 0 0 0 0 0
1 0 0 0 0 0 0 0 0 0 1 1 1 1 1 1 1 1 1 0 0 0 0 0 1 0 0 0 0 0 0 0 0 0 0 0 0 0
1 0 0 0 0 0 0 0 0 0 0 1 1 1 1 1 1 1 1 1 1 0 0 0 0 0 0 0 0 0 0 0 0 0 0 0 0 0
1 0 0 0 0 0 0 0 0 0 0 0 0 0 1 1 1 1 1 1 1 1 1 1 0 0 0 0 0 0 0 0 0 0 0 0 0 0
0 0 0 0 0 0 0 0 0 1 1 0 0 0 0 0 1 1 1 1 1 1 1 1 1 1 0 0 0 0 0 0 0 0 0 0 0 0
0 0 0 0 0 0 0 0 1 1 1 0 0 0 0 0 0 0 0 0 1 1 1 1 1 1 0 0 0 0 0 0 0 0 0 0 0 0
0 0 0 0 0 0 0 1 1 1 1 0 0 0 0 0 0 0 0 0 0 0 0 1 1 0 0 0 0 0 0 0 0 0 0 0 0 0
0 0 0 0 0 0 0 1 1 1 0 0 1 1 0 0 0 0 0 0 0 0 0 0 0 0 0 0 0 0 0 0 0 0 0 0 0 0
0 0 0 0 0 0 0 0 0 0 0 0 0 0 0 0 0 0 0 0 0 0 0 0 0 0 0 0 0 0 0 0 0 0 0 0 0 0
0 0 0 0 0 0 0 0 0 0 0 0 0 0 0 0 0 0 0 0 0 0 0 0 0 0 0 0 0 0 0 0 0 0 0 0 0 0
0 0 0 0 0 0 0 0 0 0 0 0 0 0 0 0 0 0 0 0 0 0 0 0 0 0 0 0 0 0 0 0 0 0 0 0 0 0
0 0 0 0 0 0 0 0 0 0 0 0 0 0 0 0 0 0 0 0 0 0 0 0 0 0 0 0 0 0 0 0 0 0 0 0 0 0
Wind_Speed
2 2 2 2 2 2 2 2 2 3 3 2 1 1 2 2 4 4 4 6 8 8 8 9 9 9 9 9 9 9 8 8 8 9 10 11 12 12
2 2 2 2 2 2 2 2 2 2 3 2 1 1 1 2 2 3 3 6 7 8 9 9 9 10 10 10 10 10 9 9 9 9 10 11 12 12
2 1 2 2 2 2 2 2 2 2 3 3 2 2 1 1 1 2 3 3 4 7 8 8 9 10 10 11 11 10 10 10 10 10 10 10 11 12
1 1 2 2 1 2 2 2 2 2 2 3 2 2 2 2 2 3 3 4 4 8 10 10 10 10 11 11 11 11 11 10 10 10 10 10 10 11
1 1 2 1 2 2 2 2 2 2 1 2 3 2 2 2 2 3 3 3 4 5 9 10 10 11 11 11 11 10 11 10 9 9 9 9 10 10
1 1 1 1 1 2 2 1 1 2 2 2 2 2 1 1 1 2 2 2 3 4 3 5 8 10 11 11 12 11 10 10 10 9 9 9 9 9
1 1 0 1 1 1 1 1 1 1 1 2 2 2 2 1 2 2 3 3 3 2 2 3 3 4 6 9 11 11 10 10 9 9 9 9 9 9
1 1 0 1 1 2 2 2 2 2 1 2 2 2 2 3 2 3 2 2 3 2 2 3 3 3 3 4 8 10 11 11 11 10 10 10 10 10
2 1 2 1 0 1 2 3 3 4 5 3 3 3 3 3 3 3 3 3 4 3 2 3 3 3 3 4 9 11 12 12 11 11 11 11 11 11
2 2 1 1 2 2 2 1 2 2 4 3 2 3 4 3 3 3 4 4 4 4 3 3 3 3 3 2 7 10 11 11 11 11 12 11 11 11
2 2 2 1 1 1 1 2 2 3 3 3 3 4 5 6 4 2 3 3 4 3 2 2 3 3 2 2 4 9 10 10 11 11 11 11 11 10
2 2 2 2 2 2 1 2 3 3 4 4 4 4 5 5 6 4 3 3 3 3 2 1 2 2 2 2 2 3 5 7 9 9 10 10 10 6
2 1 1 2 3 3 3 3 4 4 4 4 3 3 3 3 3 3 3 3 3 3 2 1 2 2 2 3 2 2 3 3 4 5 8 9 9 7
2 2 1 2 3 4 4 5 6 5 3 3 3 3 3 3 2 2 3 3 4 5 4 3 2 2 3 3 3 2 1 2 2 3 3 6 7 9
2 3 3 4 4 4 6 7 5 3 3 3 4 3 3 3 2 2 2 3 4 5 5 4 4 3 3 3 3 3 2 2 2 2 2 3 3 3
3 4 6 6 6 6 4 3 3 3 3 3 3 3 3 2 2 2 2 2 3 3 4 3 3 3 3 3 3 3 2 2 2 2 2 3 3 4
2 3 2 2 2 2 2 3 3 3 3 3 3 3 3 2 2 2 2 2 2 3 2 2 2 2 3 3 3 3 3 3 2 2 2 2 3 3
1 2 2 2 3 3 2 2 2 2 2 2 2 3 3 3 3 2 2 2 3 3 2 2 2 2 2 3 4 4 3 3 3 2 2 2 3 2
2 3 3 3 3 2 2 2 2 2 1 2 2 3 3 3 2 3 2 2 3 3 3 2 2 2 4 4 3 4 3 3 2 2 3 3 3 3
3 3 3 2 2 2 2 2 2 2 1 2 2 2 2 2 3 3 3 2 3 3 3 2 2 3 3 4 3 3 5 4 3 3 3 2 2 2
2 2 2 2 2 2 1 2 2 2 2 2 1 2 2 2 3 3 3 3 3 3 3 3 3 4 2 2 3 3 2 4 4 3 3 2 2 2
2 2 2 2 2 1 1 1 2 1 2 2 2 2 2 3 3 3 3 3 3 3 3 3 2 2 2 3 3 3 3 2 2 2 2 2 2 2
2 2 2 2 2 2 1 2 2 2 2 2 2 2 3 3 3 3 3 3 3 3 2 2 2 1 2 2 2 2 3 2 1 0 1 2 4 4
Wind_Direction
263 274 271 280 292 287 282 265 264 282 276 263 259 231 223 200 192 206 205 202 200 204 210 218 224 226 229 233 236 236 236 237 238 237 235 233 232 231
244 256 259 273 286 288 294 287 270 264 279 285 293 276 266 263 221 222 221 213 214 210 214 217 219 223 226 229 231 232 233 234 235 238 239 236 233 232
269 255 251 256 270 286 291 281 278 275 278 293 297 280 247 256 247 243 226 213 214 217 221 221 220 225 228 229 229 229 231 233 232 233 235 235 235 233
264 279 279 275 272 278 280 285 288 275 258 281 290 282 259 234 232 246 248 229 220 221 221 224 224 226 230 228 224 224 226 228 229 231 233 234 232 230
277 282 286 295 296 292 298 308 305 303 269 263 271 261 251 239 252 263 260 255 250 233 223 224 226 229 230 221 218 220 220 220 223 227 230 231 229 228
245 246 269 285 311 302 285 292 300 308 297 281 273 275 270 264 273 274 275 254 261 264 247 235 231 230 227 219 219 219 217 217 219 223 225 226 226 227
260 249 163 91 65 325 307 309 311 291 297 298 292 304 314 325 309 295 292 285 271 260 256 258 239 232 228 226 223 218 216 215 217 221 225 224 225 227
274 270 205 115 234 237 242 243 236 255 276 284 292 301 306 305 296 292 293 297 290 275 267 269 250 241 226 210 207 208 212 215 215 215 219 222 224 225
249 250 273 292 326 276 240 236 245 251 244 251 268 282 285 292 297 298 294 286 278 279 274 272 264 257 245 222 195 202 208 211 214 214 215 219 225 227
240 247 246 247 304 326 297 287 276 279 268 255 250 263 270 279 280 275 273 281 270 273 264 265 274 268 269 219 201 201 206 211 215 217 216 218 223 228
234 240 235 225 265 290 287 290 301 303 295 286 258 255 263 270 273 286 283 281 283 286 283 259 262 264 255 247 223 209 209 213 216 219 220 222 225 229
236 210 222 228 217 207 238 281 293 299 307 301 280 265 260 257 252 236 254 275 285 285 278 268 268 281 279 254 228 203 217 222 220 223 224 224 222 220
276 263 224 200 209 229 234 247 262 278 287 285 284 274 261 255 246 222 219 236 259 271 282 291 278 271 267 283 279 240 212 206 204 223 228 227 217 208
289 300 295 208 229 239 241 257 270 286 283 286 283 279 277 276 265 239 229 234 235 244 258 258 258 264 273 284 288 287 267 221 201 208 206 205 213 218
288 307 289 261 261 252 239 251 259 262 264 267 270 271 265 257 263 255 248 245 248 249 250 239 235 244 253 259 270 271 273 265 232 217 207 190 194 202
274 283 273 258 250 253 256 244 235 242 249 265 280 283 282 267 262 261 262 261 261 258 252 248 232 228 247 255 261 270 265 253 245 244 222 210 204 203
293 267 262 271 266 253 251 246 235 234 245 257 274 289 292 291 283 274 258 260 271 271 272 263 243 231 234 250 261 261 262 262 244 240 238 233 225 211
286 269 272 278 279 280 279 274 260 250 248 247 258 274 280 282 285 280 273 266 273 275 267 257 255 265 261 260 248 254 253 255 256 249 244 237 248 232
244 258 264 271 278 281 285 288 290 281 251 255 263 268 276 285 287 285 279 275 272 273 272 266 259 256 268 269 264 250 246 251 258 259 248 236 239 236
238 256 270 276 284 289 292 292 295 312 307 287 290 298 299 300 301 297 290 288 285 286 287 278 268 259 257 266 267 264 249 236 235 248 255 249 241 238
261 262 271 280 283 290 299 307 307 315 316 304 300 300 296 289 287 292 294 294 278 273 278 276 266 261 254 260 267 259 251 231 227 224 234 237 239 241
290 297 296 302 306 310 316 313 310 314 317 318 314 305 300 300 300 298 294 292 283 276 278 277 270 271 254 250 264 274 269 262 253 240 247 240 226 230
291 305 313 322 329 329 338 336 340 341 337 332 332 324 318 311 307 305 304 298 294 293 293 294 297 286 270 259 267 278 289 276 257 239 293 274 237 242